DMWMO EDDS-EDFM

Flight info

Callsign DMWMO
Flight time N/A
Altitude 5000
Route VESID2H/07 VESID DCT RINEX
Aircraft PA24/L-SDGRY/S

Departure

Time N/A
Airport Stuttgart Airport (EDDS)

Arrival

Time 2026-04-22 19:31
Airport Mannheim-City Airport (EDFM)
Time Latitude Longitude Altitude Speed Heading
2026-04-22 19:22 49.39463 8.76638 4544 ft 140 kts 36°
2026-04-22 19:22 49.40143 8.77629 4522 ft 135 kts 60°
2026-04-22 19:22 49.40611 8.78826 4522 ft 127 kts 60°
2026-04-22 19:22 49.41096 8.79948 4532 ft 127 kts 58°
2026-04-22 19:23 49.41596 8.81079 4524 ft 128 kts 57°
2026-04-22 19:23 49.42079 8.82233 4441 ft 135 kts 64°
2026-04-22 19:23 49.42525 8.83589 4290 ft 145 kts 61°
2026-04-22 19:23 49.43018 8.84860 4252 ft 134 kts 65°
2026-04-22 19:24 49.43644 8.85892 4260 ft 130 kts 48°
2026-04-22 19:24 49.44204 8.86912 4345 ft 117 kts 52°
2026-04-22 19:24 49.44746 8.87948 4249 ft 121 kts 54°
2026-04-22 19:24 49.45239 8.88916 4242 ft 109 kts 49°
2026-04-22 19:25 49.45962 8.89099 4242 ft 120 kts 341°
2026-04-22 19:25 49.46394 8.87990 4234 ft 131 kts 272°
2026-04-22 19:25 49.46169 8.86693 4250 ft 121 kts 255°
2026-04-22 19:25 49.45935 8.85428 4268 ft 126 kts 255°
2026-04-22 19:26 49.45866 8.84108 4259 ft 125 kts 274°
2026-04-22 19:26 49.45886 8.82736 4193 ft 131 kts 275°
2026-04-22 19:26 49.45930 8.81336 4108 ft 131 kts 276°
2026-04-22 19:26 49.45975 8.79995 4113 ft 128 kts 276°
2026-04-22 19:27 49.46047 8.78486 4119 ft 150 kts 277°
2026-04-22 19:27 49.46126 8.76819 4122 ft 160 kts 277°
2026-04-22 19:27 49.46202 8.75070 4102 ft 166 kts 276°
2026-04-22 19:27 49.46283 8.73297 4113 ft 167 kts 276°
2026-04-22 19:28 49.46367 8.71511 4109 ft 168 kts 276°
2026-04-22 19:28 49.46445 8.69737 4101 ft 168 kts 276°
2026-04-22 19:28 49.46526 8.67949 4101 ft 168 kts 276°
2026-04-22 19:28 49.46609 8.66179 4102 ft 165 kts 277°
2026-04-22 19:29 49.46691 8.64408 4105 ft 167 kts 276°
2026-04-22 19:29 49.46769 8.62630 4100 ft 162 kts 277°
2026-04-22 19:29 49.46823 8.61052 3626 ft 149 kts 275°
2026-04-22 19:29 49.46857 8.59450 2941 ft 151 kts 276°
2026-04-22 19:30 49.46934 8.58363 2433 ft 152 kts 282°
2026-04-22 19:30 49.47073 8.56198 1613 ft 137 kts 272°
2026-04-22 19:30 49.47120 8.54867 1006 ft 111 kts 275°
2026-04-22 19:30 49.47178 8.53775 572 ft 92 kts 278°
2026-04-22 19:31 49.47218 8.52885 453 ft 81 kts 274°
2026-04-22 19:31 49.47245 8.52079 338 ft 71 kts 274°
2026-04-22 19:31 49.47271 8.51432 321 ft 48 kts 274°
2026-04-22 19:31 49.47284 8.51060 322 ft 24 kts 272°
2026-04-22 19:32 49.47257 8.50956 321 ft 10 kts 154°
2026-04-22 19:32 49.47243 8.50966 321 ft 0 kts 148°
2026-04-22 19:34 49.47232 8.51022 322 ft 11 kts 96°
2026-04-22 19:34 49.47229 8.51144 321 ft 11 kts 92°
2026-04-22 19:34 49.47225 8.51258 321 ft 10 kts 92°
2026-04-22 19:35 49.47220 8.51387 321 ft 14 kts 92°
2026-04-22 19:35 49.47215 8.51547 321 ft 17 kts 93°
2026-04-22 19:35 49.47211 8.51676 321 ft 7 kts 95°
2026-04-22 19:35 49.47208 8.51813 322 ft 26 kts 92°
2026-04-22 19:36 49.47199 8.51978 321 ft 9 kts 95°
2026-04-22 19:36 49.47229 8.52134 320 ft 17 kts 35°
2026-04-22 19:36 49.47354 8.52156 321 ft 20 kts
2026-04-22 19:36 49.47442 8.52159 321 ft 6 kts 11°
2026-04-22 19:37 49.47552 8.52177 322 ft 14 kts
2026-04-22 19:37 49.47591 8.52139 322 ft 7 kts 285°
2026-04-22 19:37 49.47614 8.52057 321 ft 2 kts 275°
2026-04-22 19:37 49.47614 8.52052 322 ft 0 kts 272°
2026-04-22 19:38 49.47614 8.52051 322 ft 0 kts 272°